Location: Grand Rapids
(42.9630°N, 85.6680°W)
Time: 03:25:50
(UTC-04:00)

A-11 Canister half - Pass Details

Date: 03 June 2024
Orbit: 1524 x 1684 km, 47.3° (Epoch: 21 June)

Event Time Altitude Azimuth Distance (km) Brightness Sun altitude
Rises 00:52:18 0° 293° (WNW) 4,709 12.0 -23.7°
Reaches altitude 10° 00:55:19 10° 293° (WNW) 3,739 11.4 -23.8°
Maximum altitude 01:04:49 84° 207° (SSW) 1,600 8.9 -24.1°
Enters shadow 01:12:52 17° 121° (ESE) 3,297 10.4 -24.3°
Drops below altitude 10° 01:14:39 10° 121° (ESE) 3,855 - -24.4°
Sets 01:17:48 0° 120° (ESE) 4,860 - -24.4°
